Weather History for KPIH - July, 2014

Change the Weather History Date:

Monday, July 14, 2014

  Actual Average Record
Temperature  
Mean Temperature 76 °F 70 °F  
Max Temperature 98 °F 88 °F 102 °F (1974)
Min Temperature 54 °F 52 °F 40 °F (2010)
Degree Days  
Heating Degree Days 0 1  
Month to date heating degree days 2 15  
Since 1 June heating degree days 112 146  
Since 1 July heating degree days 2 15  
Cooling Degree Days 11 6  
Month to date cooling degree days 125 64  
Year to date cooling degree days 145 115  
Since 1 June cooling degree days 145 110  
Growing Degree Days 26 (Base 50)    
Moisture  
Dew Point 53 °F    
Average Humidity 45    
Maximum Humidity 72    
Minimum Humidity 17    
Precipitation  
Precipitation 0.19 in 0.02 in 0.38 in (2012)
Month to date precipitation 0.22 0.27  
Year to date precipitation 6.36 7.09  
Snow  
Snow 0.00 in - - ()
Month to date snowfall 0.0  
Since 1 June snowfall 0.0  
Since 1 July snowfall 0.0  
Snow Depth 0.00 in    
Sea Level Pressure  
Sea Level Pressure 29.98 in    
Wind  
Wind Speed 8 mph (NNE)    
Max Wind Speed 25 mph    
Max Gust Speed 34 mph    
Visibility 10 miles    
Events Rain , Hail , Thunderstorm    
T = Trace of Precipitation, MM = Missing Value Source: NWS Daily Summary

Daily Weather History Graph

Daily Weather History Graph

Search for Another Location

Airport or City:

Trip Planner

Search our weather history database for the weather conditions in past years. The results will help you decide how hot, cold, wet, or windy it might be!

Date:

Astronomy

Jul. 14, 2014 Rise Set
Actual Time 6:04 AM MDT 9:07 PM MDT
Civil Twilight 5:30 AM MDT 9:41 PM MDT
Nautical Twilight 4:46 AM MDT 10:25 PM MDT
Astronomical Twilight 3:54 AM MDT 11:16 PM MDT
Moon 10:33 PM MDT (7/14) 8:56 AM MDT (7/14)
Length of Visible Light 16h 11m
Length of Day
15h 03m
Waning Gibbous, 92% of the Moon is Illuminated
Jul 14
Waning Gibbous
Jul 18
Last Quarter
Jul 26
New
Aug 3
First Quarter
Aug 10
Full

Hourly Weather History & Observations

Time (MDT) Temp. Heat Index Dew Point Humidity Pressure Visibility Wind Dir Wind Speed Gust Speed Precip Events Conditions
12:53 AM 72.0 °F - 44.1 °F 37% 29.96 in 10.0 mi East 10.4 mph - N/A   Clear
1:53 AM 66.0 °F - 45.0 °F 47% 29.96 in 10.0 mi Calm Calm - N/A   Clear
2:53 AM 60.1 °F - 46.9 °F 62% 29.98 in 10.0 mi NNW 4.6 mph - N/A   Clear
3:53 AM 59.0 °F - 48.9 °F 69% 29.99 in 10.0 mi East 3.5 mph - N/A   Clear
4:53 AM 57.9 °F - 48.0 °F 70% 30.00 in 10.0 mi Variable 3.5 mph - N/A   Clear
5:53 AM 57.9 °F - 48.0 °F 70% 30.00 in 10.0 mi NE 3.5 mph - N/A   Clear
7:53 AM 64.9 °F - 50.0 °F 58% 30.00 in 10.0 mi Calm Calm - N/A   Clear
8:53 AM 73.0 °F - 51.1 °F 46% 30.00 in 10.0 mi NW 4.6 mph - N/A   Clear
9:53 AM 80.1 °F - 52.0 °F 38% 29.99 in 10.0 mi North 5.8 mph - N/A   Clear
10:53 AM 86.0 °F - 52.0 °F 31% 29.97 in 10.0 mi North 9.2 mph - N/A   Partly Cloudy
11:53 AM 91.0 °F 88.5 °F 53.1 °F 27% 29.96 in 10.0 mi North 10.4 mph - N/A   Partly Cloudy
12:53 PM 96.1 °F - 51.1 °F 22% 29.93 in 10.0 mi North 10.4 mph - N/A   Partly Cloudy
1:48 PM 93.2 °F - 48.2 °F 21% 30.10 in 10.0 mi NNW 13.8 mph - N/A Thunderstorm Thunderstorm
1:53 PM 89.6 °F 87.7 °F 55.4 °F 31% 30.10 in 10.0 mi NNW 15.0 mph - N/A Thunderstorm Thunderstorm
2:40 PM 95.0 °F - 51.1 °F 22% 30.06 in 10.0 mi NE 16.1 mph - N/A   Scattered Clouds
2:53 PM 95.0 °F 92.7 °F 54.0 °F 25% 29.90 in 10.0 mi ENE 17.3 mph - N/A   Scattered Clouds
3:53 PM 98.6 °F - 46.4 °F 17% 30.04 in 10.0 mi ENE 17.3 mph - N/A   Scattered Clouds
4:53 PM 93.0 °F - 46.0 °F 20% 29.86 in 10.0 mi NE 9.2 mph - N/A   Mostly Cloudy
5:06 PM 89.6 °F 87.3 °F 53.6 °F 29% 30.01 in 10.0 mi NNE 12.7 mph - N/A Rain , Thunderstorm Light Thunderstorms and Rain
5:40 PM 77.0 °F - 60.1 °F 56% 30.07 in 10.0 mi WSW 11.5 mph 34.5 mph 0.03 in Rain , Hail , Thunderstorm Light Thunderstorms and Rain
5:53 PM 75.0 °F - 60.1 °F 60% 29.96 in 10.0 mi SW 20.7 mph 24.2 mph 0.08 in Rain , Thunderstorm Light Thunderstorms and Rain
6:38 PM 73.0 °F - 64.0 °F 73% 30.06 in 10.0 mi North 10.4 mph - 0.07 in   Scattered Clouds
6:53 PM 75.0 °F - 60.1 °F 60% 29.96 in 10.0 mi East 13.8 mph - 0.07 in   Partly Cloudy
7:03 PM 75.9 °F - 57.9 °F 54% 30.06 in 10.0 mi ENE 8.1 mph - N/A   Clear
7:08 PM 73.9 °F - 60.1 °F 62% 30.07 in 10.0 mi ENE 8.1 mph - N/A Thunderstorm Thunderstorm
7:53 PM 73.9 °F - 59.0 °F 59% 29.91 in 10.0 mi SE 18.4 mph 23.0 mph 0.04 in   Partly Cloudy
8:53 PM 75.0 °F - 53.1 °F 46% 29.89 in 10.0 mi SSE 8.1 mph - N/A   Scattered Clouds
9:53 PM 73.9 °F - 51.1 °F 45% 29.87 in 10.0 mi ESE 4.6 mph - N/A   Clear
10:53 PM 79.0 °F - 46.9 °F 32% 29.86 in 10.0 mi Variable 3.5 mph - N/A   Partly Cloudy
11:53 PM 71.1 °F - 54.0 °F 55% 29.87 in 10.0 mi NNW 4.6 mph - N/A   Clear